Regional Weather Roundup
Issued by NWS

Home | Current Version | Previous Version | Graphics & Text | Print | Product List | Glossary On
Versions: 1 2 3 4 5 6 7 8 9 10 11 12 13 14 15 16 17 18 19 20 21 22 23 24 25 26 27 28 29 30 31 32 33 34 35 36 37 38 39 40 41 42 43 44 45 46 47 48 49 50
000
ASUS43 KFSD 202102
RWRSD

WEATHER ROUNDUP FOR SOUTH DAKOTA
NATIONAL WEATHER SERVICE SIOUX FALLS SD
400 PM CDT WED AUG 20 2014

NOTE: "FAIR" INDICATES FEW OR NO CLOUDS BELOW 12,000 FEET WITH NO
SIGNIFICANT WEATHER AND/OR OBSTRUCTIONS TO VISIBILITY.


SDZ001>005-009-010-012>017-202200-
NORTHWEST AND NORTH CENTRAL SOUTH DAKOTA

CITY           SKY/WX    TMP DP  RH WIND       PRES   REMARKS
BUFFALO          N/A     82  59  45 NW26G37   29.67R
FAITH            N/A     84  63  49 S13       29.69F
MOBRIDGE       CLOUDY    80  70  71 SE16      29.68S
$$

SDZ012>016-024>037-041>051-057-063-072>074-202200-
SOUTHWEST AND SOUTH CENTRAL SOUTH DAKOTA

CITY           SKY/WX    TMP DP  RH WIND       PRES   REMARKS
RAPID CTY ARPT PTSUNNY   85  60  42 SE6       29.72F
PIERRE         PTSUNNY   83  71  67 E13       29.67F
CUSTER         PTSUNNY   78  44  29 W9        29.89S
ELLSWORTH AFB  SUNNY     88  58  36 SE8       29.72F
PHILIP         SUNNY     94  57  28 VRB7      29.66F
PINE RIDGE     MOSUNNY   88  57  34 W10       29.74F
WINNER         FAIR      90  67  46 SE10      29.70F
$$

SDZ004>011-016>023-039-040-202200-
NORTHEAST SOUTH DAKOTA

CITY           SKY/WX    TMP DP  RH WIND       PRES   REMARKS
ABERDEEN       CLOUDY    82  67  60 SE13      29.73F
WATERTOWN      CLOUDY    82  65  56 SE12      29.78S
SISSETON         N/A     82  67  60 S12G21    29.76F
$$

SDZ017-020-022-023-036>040-048>070-202200-
SOUTHEAST SOUTH DAKOTA

CITY           SKY/WX    TMP DP  RH WIND       PRES   REMARKS
SIOUX FALLS    PTSUNNY   80  68  66 S14       29.78F
HURON          CLOUDY    83  68  60 SE13      29.70F
CHAMBERLAIN    PTSUNNY   83  72  71 SE13      29.70F
MITCHELL       CLOUDY    81  69  67 S15G29    29.72F
YANKTON        CLOUDY    75  72  88 SE9       29.75F
$$

ABBREVIATIONS USED IN REMARKS
   TC - TEMPERATURE IN CELSIUS
  WCI - WIND CHILL INDEX
   HX - HEAT INDEX
  VSB - VISIBILITY



USA.gov is the U.S. government's official web portal to all federal, state and local government web resources and services.